• In Deutschland
  • Länderverzeichnis
  • Für 7 Tage
  • Wassertemperatur
  • Satellitenkarten
  • Wetterkarte
  • Widgets
  • user-avatar
    Anmelden

    Stündliche Wetter Kapan

    Heute, 23 Juli, Sonntag

    Zeit Temperatur Niederschläge Wind Luftdruck Luftfeuchtigkeit
    00:00 +26°C° 0 mm 2 m/S 683 mmHg 46%
    01:00 +25°C° 0 mm 2 m/S 683 mmHg 46%
    02:00 +25°C° 0 mm 2 m/S 683 mmHg 45%
    03:00 +25°C° 0 mm 1 m/S 683 mmHg 45%
    04:00 +25°C° 0 mm 1 m/S 683 mmHg 44%
    05:00 +26°C° 0 mm 1 m/S 683 mmHg 42%
    06:00 +26°C° 0 mm 1 m/S 683 mmHg 41%
    07:00 +28°C° 0 mm 2 m/S 683 mmHg 36%
    08:00 +30°C° 0 mm 2 m/S 683 mmHg 31%
    09:00 +32°C° 0 mm 2 m/S 683 mmHg 27%
    10:00 +35°C° 0 mm 3 m/S 683 mmHg 25%
    11:00 +36°C° 0 mm 3 m/S 683 mmHg 23%
    12:00 +37°C° 0 mm 3 m/S 682 mmHg 21%
    13:00 +38°C° 0 mm 4 m/S 682 mmHg 20%
    14:00 +38°C° 0 mm 4 m/S 681 mmHg 20%
    15:00 +38°C° 0 mm 4 m/S 681 mmHg 19%
    16:00 +37°C° 0 mm 4 m/S 681 mmHg 21%
    17:00 +36°C° 0 mm 4 m/S 680 mmHg 23%
    18:00 +34°C° 0 mm 4 m/S 680 mmHg 25%
    19:00 +31°C° 0 mm 3 m/S 680 mmHg 29%
    20:00 +29°C° 0 mm 3 m/S 680 mmHg 32%
    21:00 +27°C° 0 mm 3 m/S 680 mmHg 36%
    22:00 +27°C° 0 mm 3 m/S 680 mmHg 36%
    23:00 +26°C° 0 mm 3 m/S 681 mmHg 37%

    Morgen, 24 Juli, Montag

    Zeit Temperatur Niederschläge Wind Luftdruck Luftfeuchtigkeit
    00:00 +26°C° 0 mm 2 m/S 681 mmHg 38%
    01:00 +25°C° 0 mm 2 m/S 681 mmHg 40%
    02:00 +24°C° 0 mm 2 m/S 681 mmHg 42%
    03:00 +24°C° 0 mm 2 m/S 681 mmHg 44%
    04:00 +24°C° 0 mm 2 m/S 681 mmHg 45%
    05:00 +24°C° 0 mm 2 m/S 681 mmHg 45%
    06:00 +24°C° 0 mm 2 m/S 682 mmHg 46%
    07:00 +26°C° 0 mm 3 m/S 682 mmHg 43%
    08:00 +28°C° 0 mm 3 m/S 682 mmHg 39%
    09:00 +29°C° 0 mm 4 m/S 682 mmHg 36%
    10:00 +32°C° 0 mm 4 m/S 682 mmHg 34%
    11:00 +33°C° 0 mm 4 m/S 682 mmHg 32%
    12:00 +34°C° 0 mm 4 m/S 681 mmHg 31%
    13:00 +34°C° 0 mm 5 m/S 681 mmHg 31%
    14:00 +34°C° 0 mm 5 m/S 681 mmHg 31%
    15:00 +35°C° 0 mm 5 m/S 680 mmHg 32%
    16:00 +34°C° 0 mm 5 m/S 680 mmHg 35%
    17:00 +33°C° 0 mm 5 m/S 680 mmHg 38%
    18:00 +32°C° 0 mm 4 m/S 679 mmHg 42%
    19:00 +29°C° 0 mm 4 m/S 679 mmHg 48%
    20:00 +27°C° 0 mm 3 m/S 680 mmHg 55%
    21:00 +25°C° 0 mm 2 m/S 680 mmHg 62%
    22:00 +24°C° 0 mm 2 m/S 680 mmHg 63%
    23:00 +24°C° 0 mm 2 m/S 680 mmHg 64%

    übermorgen, 25 Juli, Dienstag

    Zeit Temperatur Niederschläge Wind Luftdruck Luftfeuchtigkeit
    00:00 +23°C° 0 mm 2 m/S 680 mmHg 66%
    01:00 +23°C° 0 mm 2 m/S 680 mmHg 66%
    02:00 +23°C° 0 mm 2 m/S 680 mmHg 66%
    03:00 +21°C° 0 mm 2 m/S 680 mmHg 66%
    04:00 +23°C° 0 mm 2 m/S 680 mmHg 64%
    05:00 +23°C° 0 mm 2 m/S 680 mmHg 61%
    06:00 +24°C° 0 mm 2 m/S 680 mmHg 59%
    07:00 +26°C° 0 mm 2 m/S 680 mmHg 52%
    08:00 +28°C° 0 mm 2 m/S 681 mmHg 45%
    09:00 +30°C° 0 mm 3 m/S 681 mmHg 37%
    10:00 +31°C° 0 mm 3 m/S 681 mmHg 34%
    11:00 +33°C° 0 mm 3 m/S 680 mmHg 31%
    12:00 +35°C° 0 mm 3 m/S 680 mmHg 27%
    13:00 +35°C° 0 mm 3 m/S 680 mmHg 27%
    14:00 +36°C° 0 mm 3 m/S 680 mmHg 26%
    15:00 +36°C° 0 mm 3 m/S 679 mmHg 25%
    16:00 +35°C° 0 mm 3 m/S 679 mmHg 28%
    17:00 +34°C° 0 mm 3 m/S 679 mmHg 30%
    18:00 +33°C° 0 mm 3 m/S 679 mmHg 33%
    19:00 +30°C° 0 mm 3 m/S 679 mmHg 39%
    20:00 +28°C° 0 mm 2 m/S 679 mmHg 45%
    21:00 +26°C° 0 mm 2 m/S 679 mmHg 51%
    22:00 +26°C° 0 mm 2 m/S 680 mmHg 52%
    23:00 +25°C° 0 mm 2 m/S 680 mmHg 52%

    26 Juli, Mittwoch

    Zeit Temperatur Niederschläge Wind Luftdruck Luftfeuchtigkeit
    00:00 +25°C° 0 mm 2 m/S 680 mmHg 52%
    01:00 +24°C° 0 mm 2 m/S 680 mmHg 53%
    02:00 +24°C° 0 mm 2 m/S 680 mmHg 55%
    03:00 +24°C° 0 mm 2 m/S 679 mmHg 56%
    04:00 +24°C° 0 mm 2 m/S 680 mmHg 54%
    05:00 +25°C° 0 mm 1 m/S 680 mmHg 52%
    06:00 +25°C° 0 mm 1 m/S 680 mmHg 50%
    07:00 +27°C° 0 mm 1 m/S 681 mmHg 43%
    08:00 +30°C° 0 mm 2 m/S 681 mmHg 36%
    09:00 +32°C° 0 mm 2 m/S 682 mmHg 29%
    10:00 +34°C° 0 mm 2 m/S 681 mmHg 27%
    11:00 +35°C° 0 mm 3 m/S 681 mmHg 24%
    12:00 +36°C° 0 mm 3 m/S 681 mmHg 22%
    13:00 +36°C° 0 mm 3 m/S 681 mmHg 21%
    14:00 +37°C° 0 mm 3 m/S 681 mmHg 21%
    15:00 +37°C° 0 mm 3 m/S 681 mmHg 20%
    16:00 +36°C° 0 mm 3 m/S 681 mmHg 23%
    17:00 +35°C° 0 mm 3 m/S 681 mmHg 25%
    18:00 +34°C° 0 mm 3 m/S 681 mmHg 27%
    19:00 +31°C° 0 mm 3 m/S 681 mmHg 32%
    20:00 +29°C° 0 mm 2 m/S 681 mmHg 37%
    21:00 +27°C° 0 mm 2 m/S 682 mmHg 42%
    22:00 +26°C° 0 mm 2 m/S 682 mmHg 43%
    23:00 +26°C° 0 mm 2 m/S 682 mmHg 44%

    27 Juli, Donnerstag

    Zeit Temperatur Niederschläge Wind Luftdruck Luftfeuchtigkeit
    00:00 +25°C° 0 mm 2 m/S 682 mmHg 45%
    01:00 +25°C° 0 mm 2 m/S 682 mmHg 45%
    02:00 +25°C° 0 mm 2 m/S 682 mmHg 45%
    03:00 +25°C° 0 mm 2 m/S 683 mmHg 45%
    04:00 +25°C° 0 mm 2 m/S 683 mmHg 43%
    05:00 +26°C° 0 mm 2 m/S 683 mmHg 42%
    06:00 +26°C° 0 mm 1 m/S 684 mmHg 40%
    07:00 +28°C° 0 mm 2 m/S 684 mmHg 36%
    08:00 +31°C° 0 mm 2 m/S 685 mmHg 31%
    09:00 +34°C° 0 mm 2 m/S 685 mmHg 26%
    10:00 +35°C° 0 mm 3 m/S 685 mmHg 24%
    11:00 +36°C° 0 mm 3 m/S 685 mmHg 23%
    12:00 +37°C° 0 mm 3 m/S 685 mmHg 21%
    13:00 +38°C° 0 mm 4 m/S 685 mmHg 20%
    14:00 +38°C° 0 mm 4 m/S 684 mmHg 20%
    15:00 +38°C° 0 mm 4 m/S 684 mmHg 20%
    16:00 +37°C° 0 mm 4 m/S 684 mmHg 22%
    17:00 +36°C° 0 mm 4 m/S 684 mmHg 24%
    18:00 +35°C° 0 mm 4 m/S 684 mmHg 27%
    19:00 +33°C° 0 mm 3 m/S 684 mmHg 32%
    20:00 +30°C° 0 mm 3 m/S 684 mmHg 37%
    21:00 +28°C° 0 mm 2 m/S 684 mmHg 42%
    22:00 +27°C° 0 mm 2 m/S 685 mmHg 44%
    23:00 +26°C° 0 mm 2 m/S 685 mmHg 45%

    28 Juli, Freitag

    Zeit Temperatur Niederschläge Wind Luftdruck Luftfeuchtigkeit
    00:00 +26°C° 0 mm 2 m/S 685 mmHg 47%
    01:00 +26°C° 0 mm 2 m/S 685 mmHg 48%
    02:00 +25°C° 0 mm 2 m/S 685 mmHg 48%
    03:00 +25°C° 0 mm 2 m/S 685 mmHg 49%
    04:00 +25°C° 0 mm 2 m/S 686 mmHg 47%
    05:00 +26°C° 0 mm 2 m/S 686 mmHg 44%
    06:00 +27°C° 0 mm 2 m/S 686 mmHg 42%
    07:00 +29°C° 0 mm 2 m/S 687 mmHg 37%
    08:00 +31°C° 0 mm 2 m/S 687 mmHg 31%
    09:00 +34°C° 0 mm 3 m/S 687 mmHg 25%
    10:00 +35°C° 0 mm 3 m/S 687 mmHg 24%
    11:00 +37°C° 0 mm 3 m/S 687 mmHg 22%
    12:00 +38°C° 0 mm 4 m/S 687 mmHg 20%
    13:00 +38°C° 0 mm 4 m/S 687 mmHg 20%
    14:00 +40°C° 0 mm 4 m/S 686 mmHg 19%
    15:00 +40°C° 0 mm 4 m/S 686 mmHg 19%
    16:00 +38°C° 0 mm 4 m/S 686 mmHg 21%
    17:00 +37°C° 0 mm 4 m/S 686 mmHg 23%
    18:00 +36°C° 0 mm 4 m/S 686 mmHg 25%
    19:00 +33°C° 0 mm 3 m/S 686 mmHg 29%
    20:00 +30°C° 0 mm 3 m/S 686 mmHg 34%
    21:00 +28°C° 0 mm 2 m/S 686 mmHg 39%
    22:00 +27°C° 0 mm 2 m/S 686 mmHg 40%
    23:00 +27°C° 0 mm 2 m/S 686 mmHg 42%
    Mehr zeigen